sat.trackr.live / text

‹ back to catalog

STARLINK-31918

NORAD 60037 · 2024-111X

PAYLOAD ACTIVE UNKNOWN

§ Identity

Operator
Country
US
Launch date
2024-06-08
Launch site
AFETR
Launch vehicle
Mass (kg)
RCS (m²)

Purposes: comms

External: N2YO · Heavens-Above · Gunter

§ Orbital elements

Epoch: 2026-05-25T02:08:05.071776Z

Period
94.11 min
Inclination
53.1612°
Eccentricity
0.0001288
Mean motion
15.30194004 rev/d
Perigee alt
474.4 km
Apogee alt
476.1 km
Semi-major
6,853.4 km
B*
3.6440e-5
RAAN
80.5365°
Arg perigee
86.4878°
Mean anomaly
273.6270°
Rev number
11,066

§ Raw data

STARLINK-319181 60037U 24111X   26145.08894759  .00000720  00000+0  36440-4 0  99922 60037  53.1612  80.5365 0001288  86.4878 273.6270 15.30194004110661

JSON: /api/v1/satellites/60037 · /tle

For live sub-satellite position, see the globe view (requires WebGL).

§ Visibility from observer

Set your observer location to see the next 7 days of passes ≥ 10°. The values pass through the URL so the page stays shareable.

No JS? Fill the form by hand. The geolocation button needs JavaScript.